TimeCDT,TemperatureF,Dew PointF,Humidity,Sea Level PressureIn,VisibilityMPH,Wind Direction,Wind SpeedMPH,Gust SpeedMPH,PrecipitationIn,Events,Conditions,WindDirDegrees,DateUTC
12:15 AM,47.1,34.3,61,30.29,10.0,Calm,Calm,-,N/A,,Clear,0,2013-04-22 05:15:00
12:35 AM,47.1,34.2,61,30.29,10.0,NE,4.6,-,N/A,,Clear,40,2013-04-22 05:35:00
12:55 AM,46.6,34.3,62,30.28,10.0,NE,3.5,-,N/A,,Clear,50,2013-04-22 05:55:00
1:15 AM,45.5,34.5,65,30.28,10.0,Calm,Calm,-,N/A,,Clear,0,2013-04-22 06:15:00
1:55 AM,43.5,34.7,71,30.27,10.0,North,-9999.0,-,N/A,,Clear,0,2013-04-22 06:55:00
2:15 AM,43.5,34.7,71,30.26,10.0,North,-9999.0,-,N/A,,Clear,0,2013-04-22 07:15:00
2:35 AM,43.0,34.9,73,30.26,10.0,North,-9999.0,-,N/A,,Clear,0,2013-04-22 07:35:00
2:55 AM,42.4,34.7,74,30.26,10.0,Calm,Calm,-,N/A,,Clear,0,2013-04-22 07:55:00
3:15 AM,42.1,34.5,75,30.26,10.0,North,-9999.0,-,N/A,,Clear,0,2013-04-22 08:15:00
3:35 AM,42.1,34.5,75,30.26,10.0,Calm,Calm,-,N/A,,Clear,0,2013-04-22 08:35:00
3:55 AM,41.9,34.9,76,30.26,10.0,North,-9999.0,-,N/A,,Clear,0,2013-04-22 08:55:00
4:15 AM,41.0,35.2,80,30.26,10.0,North,-9999.0,-,N/A,,Clear,0,2013-04-22 09:15:00
4:35 AM,40.3,35.1,82,30.26,10.0,North,-9999.0,-,N/A,,Clear,0,2013-04-22 09:35:00
4:55 AM,40.5,35.2,82,30.26,10.0,Calm,Calm,-,N/A,,Clear,0,2013-04-22 09:55:00
5:15 AM,39.7,34.9,83,30.27,10.0,North,-9999.0,-,N/A,,Clear,0,2013-04-22 10:15:00
5:35 AM,39.6,35.1,84,30.28,10.0,North,-9999.0,-,N/A,,Clear,0,2013-04-22 10:35:00
5:55 AM,38.8,34.9,86,30.28,10.0,North,-9999.0,-,N/A,,Clear,0,2013-04-22 10:55:00
6:15 AM,38.5,35.1,87,30.28,10.0,North,-9999.0,-,N/A,,Clear,0,2013-04-22 11:15:00
6:35 AM,38.8,36.0,89,30.29,10.0,North,-9999.0,-,N/A,,Clear,0,2013-04-22 11:35:00
6:55 AM,40.6,37.8,89,30.29,10.0,Calm,Calm,-,N/A,,Clear,0,2013-04-22 11:55:00
7:15 AM,42.8,39.2,87,30.29,10.0,Calm,Calm,-,N/A,,Clear,0,2013-04-22 12:15:00
7:35 AM,46.0,41.2,83,30.29,10.0,Calm,Calm,-,N/A,,Clear,0,2013-04-22 12:35:00
7:55 AM,49.8,40.6,71,30.29,10.0,Calm,Calm,-,N/A,,Clear,0,2013-04-22 12:55:00
8:15 AM,52.7,40.3,63,30.29,10.0,Calm,Calm,-,N/A,,Clear,0,2013-04-22 13:15:00
8:35 AM,55.9,40.1,55,30.29,10.0,South,8.1,-,N/A,,Clear,190,2013-04-22 13:35:00
8:55 AM,57.6,40.3,53,30.29,10.0,SSW,6.9,-,N/A,,Clear,210,2013-04-22 13:55:00
9:15 AM,59.2,41.7,52,30.29,10.0,SSW,3.5,-,N/A,,Clear,200,2013-04-22 14:15:00
9:35 AM,60.8,41.9,50,30.29,10.0,SSE,4.6,-,N/A,,Clear,160,2013-04-22 14:35:00
9:55 AM,62.1,41.4,47,30.29,10.0,South,6.9,-,N/A,,Clear,170,2013-04-22 14:55:00
10:15 AM,63.5,41.4,44,30.29,10.0,South,9.2,-,N/A,,Clear,190,2013-04-22 15:15:00
10:35 AM,64.6,40.6,42,30.29,10.0,SSW,5.8,-,N/A,,Clear,210,2013-04-22 15:35:00
10:55 AM,65.7,41.5,41,30.28,10.0,SSW,8.1,-,N/A,,Clear,200,2013-04-22 15:55:00
11:15 AM,66.4,42.3,41,30.28,10.0,South,6.9,-,N/A,,Clear,180,2013-04-22 16:15:00
11:35 AM,67.3,42.3,40,30.27,10.0,Calm,Calm,-,N/A,,Clear,0,2013-04-22 16:35:00
11:55 AM,67.8,42.3,39,30.26,10.0,SSW,5.8,-,N/A,,Clear,200,2013-04-22 16:55:00
12:15 PM,68.5,42.1,38,30.25,10.0,Calm,Calm,-,N/A,,Clear,0,2013-04-22 17:15:00
12:35 PM,68.9,40.5,35,30.24,10.0,SSE,3.5,-,N/A,,Mostly Cloudy,160,2013-04-22 17:35:00
12:55 PM,70.0,40.5,34,30.23,10.0,Calm,Calm,-,N/A,,Scattered Clouds,0,2013-04-22 17:55:00
1:15 PM,70.0,42.4,37,30.22,10.0,SSE,5.8,-,N/A,,Scattered Clouds,150,2013-04-22 18:15:00
1:35 PM,68.7,40.5,36,30.21,10.0,Calm,Calm,-,N/A,,Scattered Clouds,0,2013-04-22 18:35:00
1:55 PM,68.7,40.3,35,30.20,10.0,ESE,4.6,-,N/A,,Mostly Cloudy,110,2013-04-22 18:55:00
2:15 PM,69.8,39.9,34,30.19,10.0,Calm,Calm,-,N/A,,Overcast,0,2013-04-22 19:15:00
2:35 PM,71.4,40.5,33,30.18,10.0,ESE,5.8,-,N/A,,Mostly Cloudy,120,2013-04-22 19:35:00
2:55 PM,71.2,40.1,32,30.17,10.0,SSW,8.1,-,N/A,,Mostly Cloudy,200,2013-04-22 19:55:00
3:35 PM,71.6,40.6,33,30.16,10.0,South,8.1,-,N/A,,Mostly Cloudy,170,2013-04-22 20:35:00
3:55 PM,72.0,40.3,32,30.15,10.0,ESE,5.8,-,N/A,,Scattered Clouds,120,2013-04-22 20:55:00
4:15 PM,70.0,39.2,33,30.14,10.0,South,4.6,-,N/A,,Clear,190,2013-04-22 21:15:00
4:35 PM,70.0,38.7,32,30.14,10.0,SSE,5.8,-,N/A,,Clear,150,2013-04-22 21:35:00
4:55 PM,70.0,39.0,32,30.14,10.0,SSE,6.9,-,N/A,,Clear,150,2013-04-22 21:55:00
5:15 PM,70.5,39.0,32,30.13,10.0,South,4.6,-,N/A,,Clear,180,2013-04-22 22:15:00
5:35 PM,70.9,38.5,31,30.13,10.0,ESE,3.5,-,N/A,,Clear,120,2013-04-22 22:35:00
5:55 PM,70.3,37.2,30,30.12,10.0,Calm,Calm,-,N/A,,Clear,0,2013-04-22 22:55:00
6:15 PM,69.8,39.6,33,30.12,10.0,ESE,4.6,-,N/A,,Clear,110,2013-04-22 23:15:00
6:35 PM,68.7,40.3,35,30.12,10.0,East,3.5,-,N/A,,Clear,80,2013-04-22 23:35:00
6:55 PM,66.9,40.8,39,30.11,10.0,Calm,Calm,-,N/A,,Clear,0,2013-04-22 23:55:00
7:15 PM,65.1,39.4,39,30.11,10.0,Calm,Calm,-,N/A,,Clear,0,2013-04-23 00:15:00
7:35 PM,62.4,40.5,44,30.11,10.0,Calm,Calm,-,N/A,,Clear,0,2013-04-23 00:35:00
7:55 PM,59.2,42.1,53,30.12,10.0,Calm,Calm,-,N/A,,Clear,0,2013-04-23 00:55:00
8:15 PM,57.0,43.0,59,30.12,10.0,Calm,Calm,-,N/A,,Clear,0,2013-04-23 01:15:00
8:35 PM,54.7,43.3,66,30.12,10.0,Calm,Calm,-,N/A,,Clear,0,2013-04-23 01:35:00
8:55 PM,55.4,42.6,62,30.13,10.0,Calm,Calm,-,N/A,,Clear,0,2013-04-23 01:55:00
9:15 PM,55.4,42.3,61,30.13,10.0,Calm,Calm,-,N/A,,Clear,0,2013-04-23 02:15:00
9:35 PM,52.9,43.0,69,30.14,10.0,Calm,Calm,-,N/A,,Clear,0,2013-04-23 02:35:00
9:55 PM,52.5,42.6,69,30.14,10.0,Calm,Calm,-,N/A,,Clear,0,2013-04-23 02:55:00
10:15 PM,51.6,43.3,73,30.13,10.0,ENE,3.5,-,N/A,,Clear,70,2013-04-23 03:15:00
10:35 PM,51.1,43.2,74,30.13,10.0,Calm,Calm,-,N/A,,Clear,0,2013-04-23 03:35:00
10:55 PM,50.2,43.3,77,30.13,10.0,East,3.5,-,N/A,,Clear,80,2013-04-23 03:55:00
11:15 PM,49.6,43.2,78,30.13,10.0,Calm,Calm,-,N/A,,Clear,0,2013-04-23 04:15:00
11:35 PM,48.6,43.5,83,30.13,10.0,Calm,Calm,-,N/A,,Clear,0,2013-04-23 04:35:00
11:55 PM,48.2,43.0,82,30.13,10.0,Calm,Calm,-,N/A,,Clear,0,2013-04-23 04:55:00